Location: Courçay
(47.2523°N, 0.8761°E)
Time: 21:19:19
(UTC+00:00)

IRS-1C - Pass Details

Date: 18 November 2025
Orbit: 813 x 814 km, 99.0° (Epoch: 10 December)

Event Time Altitude Azimuth Distance (km) Brightness Sun altitude
Rises 17:13:45 0° 158° (SSE) 3,326 7.3 -9.5°
Reaches altitude 10° 17:16:05 10° 157° (SSE) 2,398 6.5 -9.9°
Maximum altitude 17:21:23 77° 73° (ENE) 840 4.1 -10.8°
Drops below altitude 10° 17:26:43 10° 348° (NNW) 2,414 6.5 -11.6°
Sets 17:29:04 0° 347° (NNW) 3,350 7.3 -12.0°
